Skip Page Navigation
NASA JPL Caltech
NASA Logo - Jet Propulsion Laboratory + View the NASA Portal
+ Near-Earth Object (NEO) Program
Search JPL
JPL Home Earth Solar System Stars & Galaxies Technology
JPL Solar System Dynamics
BODIES ORBITS EPHEMERIDES TOOLS PHYSICAL DATA DISCOVERY FAQ SITE MAP
JPL Small-Body Database Browser
Search: [ help ]  
31267 Kuldiga (1998 ES14)
Classification: Main-belt Asteroid          SPK-ID: 2031267
Ephemeris | Orbit Diagram | Orbital Elements | Physical Parameters | Discovery Circumstances | Close-Approach Data ]

[ show orbit diagram ]
Orbital Elements at Epoch 2457600.5 (2016-Jul-31.0) TDB
Reference: JPL 17 (heliocentric ecliptic J2000)
 Element Value Uncertainty (1-sigma)   Units 
e .1133051277151316 7.9839e-08  
a 3.019132904602448 3.5791e-08 au
q 2.677049665257512 2.3923e-07 au
i 10.58670150389427 7.5228e-06 deg
node 12.72065641522592 3.1324e-05 deg
peri 1.381036149033473 4.1029e-05 deg
M 338.877396932275 2.9943e-05 deg
tp 2457712.925987568992
(2016-Nov-20.42598757)
0.00016032 JED
period 1916.115897035426
5.25
3.4073e-05
9.329e-08
d
yr
n .1878800758122117 3.3409e-09 deg/d
Q 3.361216143947385 3.9847e-08 au
  Orbit Determination Parameters
   # obs. used (total)      971  
   data-arc span      8427 days (23.07 yr)  
   first obs. used      1993-03-21  
   last obs. used      2016-04-16  
   planetary ephem.      DE431  
   SB-pert. ephem.      SB431-BIG16  
   condition code      0  
   fit RMS      .53926  
   data source      ORB  
   producer      Otto Matic  
   solution date      2016-Apr-25 13:57:43  

Additional Information
 Earth MOID = 1.6765 au 
 Jupiter MOID = 2.09636 au 
 T_jup = 3.211 
[ show covariance matrix ]

Ephemeris | Orbit Diagram | Orbital Elements | Physical Parameters | Discovery Circumstances | Close-Approach Data ]

Physical Parameter Table
Parameter Symbol Value Units Sigma Reference Notes
absolute magnitude H 12.8 mag n/a MPO263609  

31267 Kuldiga           Discovered 1998 Mar. 1 by E. W. Elst at the European Southern Observatory.
Kuldiga, a city in western Latvia, was first mentioned in 1242, and it joined the Hanseatic League in 1368. The city is known for its beautiful nineteenth-century synagogue and for the Ventas Rumba, the widest waterfall in Europe.
NOTE: some special characters may not display properly (any characters within {} are an attempt to place the proper accent above a character)
Reference: 20080321/MPCPages.arcLast Updated: 2008-03-26

[ show close-approach data ]
Alternate Designations
 1998 ES14 = 1993 FW20 
Ephemeris | Orbit Diagram | Orbital Elements | Physical Parameters | Discovery Circumstances | Close-Approach Data ]
ABOUT SSD CREDITS/AWARDS PRIVACY/COPYRIGHT GLOSSARY LINKS
FirstGov 2016-Apr-29 04:03 UT
(server date/time)  
NASA Home Page
Site Manager:   Ryan S. Park
Webmaster  Alan B. Chamberlin